Regional Weather Roundup
Issued by NWS

Home | Current Version | Previous Version | Text Only | Print | Product List | Glossary On
Versions: 1 2 3 4 5 6 7 8 9 10 11 12 13 14 15 16 17 18 19 20 21 22 23 24 25 26 27 28 29 30 31 32 33 34 35 36 37 38 39 40 41 42 43 44 45 46 47 48 49 50
000
ASUS43 KMKX 242100
RWRWI

WISCONSIN REGIONAL WEATHER ROUNDUP
NATIONAL WEATHER SERVICE MILWAUKEE/SULLIVAN WI
400 PM CDT FRI OCT 24 2014

NOTE: "FAIR" INDICATES FEW OR NO CLOUDS BELOW 12,000 FEET WITH NO
SIGNIFICANT WEATHER AND/OR OBSTRUCTIONS TO VISIBILITY.

WIZ001-002-006>008-014>016-023>028-242200-
NORTHWEST WISCONSIN

CITY           SKY/WX    TMP DP  RH WIND       PRES   REMARKS
SUPERIOR ARPT  SUNNY     71  54  54 W15       29.75S
ASHLAND        SUNNY     68  50  52 S14       29.77F
HAYWARD        CLOUDY    60  51  72 S14       29.83R
SIREN          MOSUNNY   63  52  67 SW6       29.83R
CUMBERLAND     CLOUDY    57  50  77 S9        29.84S
RICE LAKE      CLOUDY    59  51  73 S8        29.86R
CHETEK         CLOUDY    58  51  77 S8G16     29.85S
LADYSMITH      CLOUDY    59  49  70 S8        29.86S
EAU CLAIRE     CLOUDY    59  52  77 S9        29.85S
MENOMONIE      CLOUDY    59  55  87 S8        29.85F
NEW RICHMOND   CLOUDY    59  55  87 S9        29.84F
OSCEOLA        CLOUDY    61  56  84 S8        29.86S
$$

WIZ003>005-009-010-017-018-242200-
NORTH CENTRAL WISCONSIN

CITY           SKY/WX    TMP DP  RH WIND       PRES   REMARKS
MANITOWISH WTR MOSUNNY   61  49  66 S9        29.83F
ARBOR VITAE    SUNNY     62  49  63 S8        29.84F
WOODRUFF       SUNNY     62  49  63 S8        29.84F
RHINELANDER    MOSUNNY   59  44  57 S9        29.87F
EAGLE RIVER    MOSUNNY   60  41  49 SW6       29.85F
LAND O LAKES   SUNNY     64  42  45 S7G17     29.85F
PHILLIPS       CLOUDY    62  47  58 SW14      29.83S
TOMAHAWK       SUNNY     60  47  62 CALM      29.87F
MEDFORD        CLOUDY    56  49  77 S8        29.86F
MERRILL        SUNNY     58  48  71 S6        29.87F
$$

WIZ029-030-035-036-043>047-242200-
CENTRAL WISCONSIN

CITY           SKY/WX    TMP DP  RH WIND       PRES   REMARKS
WAUSAU         MOSUNNY   58  48  69 S6        29.87F
MOSINEE        MOSUNNY   55  54  94 S8        29.89F
MARSHFIELD     PTSUNNY   57  50  77 S9        29.87F
STEVENS POINT  MOSUNNY   57  49  73 S7        29.89F
WAUPACA        SUNNY     60  50  69 S6        29.92F
WAUTOMA        NOT AVBL
WISC RAPIDS    CLOUDY    60  50  69 S7        29.90F
CAMP DOUGLAS   NOT AVBL
$$

WIZ011>013-019>022-031-037>040-048>050-242200-
NORTHEAST WISCONSIN

CITY           SKY/WX    TMP DP  RH WIND       PRES   REMARKS
ANTIGO         MOSUNNY   56  49  77 S7        29.89F
SHAWANO        MOSUNNY   56  49  78 SW6       29.91F
OCONTO         MOSUNNY   55  49  81 SW3       29.91F
STURGEON BAY   MOSUNNY   55  48  76 W9        29.92F
GREEN BAY      PTSUNNY   53  49  86 VRB7      29.92F
MANITOWOC      NOT AVBL
APPLETON       PTSUNNY   52  50  93 S9        29.93F
CLINTONVILLE   PTSUNNY   54  50  87 S7        29.91F
OSHKOSH        SUNNY     57  51  80 S10       29.92F
$$

WIZ032>034-041-042-053>061-242200-
SOUTHWEST WISCONSIN

CITY           SKY/WX    TMP DP  RH WIND       PRES   REMARKS
LA CROSSE      CLOUDY    62  57  83 S9        29.87R
SPARTA         PTSUNNY   64  50  60 SW6       29.87F
VIROQUA        CLOUDY    62  53  72 S8        29.89S
BOSCOBEL       CLOUDY    64  54  69 S7        29.90S
PRAIRIE DU CHI CLOUDY    62  54  73 S7        29.89R
PLATTEVILLE    MOSUNNY   61  55  83 SE12      29.92F
$$

WIZ056-057-062-063-064-067-068-242200-
SOUTH CENTRAL WISCONSIN

CITY           SKY/WX    TMP DP  RH WIND       PRES   REMARKS
REEDSBURG      CLOUDY    61  52  73 S7        29.90F
BARABOO/DELLS  CLOUDY    61  49  65 S12       29.91F
LONE ROCK      NOT AVBL
MINERAL POINT  SUNNY     63  52  67 S14       29.91F
MADISON        PTSUNNY   61  51  70 S9        29.93F
MIDDLETON      MOSUNNY   64  50  60 S9        29.93F
WATERTOWN      SUNNY     56  51  83 S9        29.94F
MONROE         PTSUNNY   61  52  72 S10       29.94F
JANESVILLE     PTSUNNY   61  52  72 SW8       29.95F
$$

WIZ051-052-058>065-066-070>072-242200-
SOUTHEAST WISCONSIN

CITY           SKY/WX    TMP DP  RH WIND       PRES   REMARKS
MILWAUKEE      PTSUNNY   61  51  70 SW7       29.95F
WAUKESHA       SUNNY     59  50  72 SW7       29.96F
MILWAUKEE/TIMM SUNNY     63  48  59 S6        29.95F
RACINE         MOSUNNY   61  51  70 SW9       29.97F
BURLINGTON     SUNNY     59  49  69 SW6       29.96F
KENOSHA        SUNNY     63  52  67 SW5       29.97S
FOND DU LAC    SUNNY     57  50  77 S7        29.93F
SHEBOYGAN      SUNNY     63  49  60 W8        29.93F
WEST BEND      SUNNY     61  48  63 SW5       29.94F
JUNEAU         SUNNY     57  51  78 S9        29.95F
$$

LSZ147-162-242200-
LAKE SUPERIOR

STATION/POSITION TIME  TEMP    WIND        PRES    WAVE
                       AIR SEA DIR/SP/G            HT/PER
                 (UTC) (F)     (DEG/KT/KT) (MB)    (FT/S)
W MID LAKE BUOY  1950   50 47  170/  4/  6 1008.3F   1
DEVILS ISLAND    2000   51      10/  2/  3 1008.1F
PORT WING        2000   54      20/  5/  8 1007.8F
SAXON HARBOR     2000   71     200/ 10/ 20 1008.1F
$$

LMZ867-665-643>646-242200-
LAKE MICHIGAN

STATION/POSITION TIME  TEMP    WIND        PRES    WAVE
                       AIR SEA DIR/SP/G            HT/PER
                 (UTC) (F)     (DEG/KT/KT) (MB)    (FT/S)
CHAMBERS ISLAND  2000   49     210/  7/ 11 1013.2F
N MID LAKE BUOY  1950   50 51  210/ 16/ 17 1013.2F   2/ 3
NORTHPORT PIER   2000   53     180/  6/ 10 1013.2F
SISTER BAY       2012          240/  9/ 11   N/A
ALGOMA LAKESHORE 1856          220/ 12/ 14   N/A
KEWAUNEE LAKESHO 2000   51     170/ 12/ 13 1012.7F
SHEBOYGAN LAKESH 2000   50 51  170/ 14/ 16 1014.5F
PORT WASHINGTON  2000   55     190/  5/  8 1015.2S
ATWATER BUOY     2000   53     150/ 10/ 12 1015.5F
MILWAUKEE LAKESH 2015   56     140/  4/  5   N/A
S MID LAKE BUOY  1950   52 54  210/  6/  8 1015.4F   1
KENOSHA   LAKESH 2000   58     140/  7/  8 1014.9F
$$

TC  - TEMPERATURE IN CELSIUS
VSB - VISIBILITY IN STATUTE MILES
WCI - WIND CHILL INDEX
HX  - HEAT INDEX




USA.gov is the U.S. government's official web portal to all federal, state and local government web resources and services.